Luverne, MN

11:17 PM CDT on September 24, 2017 (GMT -0500)
Luverne

Weather History for KLYV - March, 2013

Change the Weather History Date:

Sunday, March 3, 2013

  Actual Average (KPQN) Record (KPQN)
Temperature  
Mean Temperature 28 °F -  
Max Temperature 35 °F 27 °F 46 °F (2005)
Min Temperature 21 °F 12 °F -9 °F (2014)
Degree Days  
Heating Degree Days 37    
Moisture  
Dew Point 24 °F    
Average Humidity 80    
Maximum Humidity 93    
Minimum Humidity 69    
Precipitation  
Precipitation 0.00 in - - ()
Sea Level Pressure  
Sea Level Pressure 29.88 in    
Wind  
Wind Speed 10 mph (SE)    
Max Wind Speed 21 mph    
Max Gust Speed 25 mph    
Visibility 8 miles    
Events      
Averages and records for this station are not official NWS values.
T = Trace of Precipitation, MM = Missing Value Source: NWS Daily Summary

Daily Weather History Graph

Daily Weather History Graph

Search for Another Location

Airport or City:

Trip Planner

Search our weather history database for the weather conditions in past years. The results will help you decide how hot, cold, wet, or windy it might be!

Date:

Astronomy

Mar. 03, 2013 Rise Set
Actual Time 6:57 AM CST 6:16 PM CST
Civil Twilight 6:28 AM CST 6:45 PM CST
Nautical Twilight 5:55 AM CST 7:18 PM CST
Astronomical Twilight 5:22 AM CST 7:51 PM CST
Moon 12:08 AM CST (3/3) 10:01 AM CST (3/3)
Length of Visible Light 12h 16m
Length of Day
11h 19m
Waning Gibbous, 63% of the Moon is Illuminated
Mar 3
Waning Gibbous
Mar 4
Last Quarter
Mar 11
New
Mar 19
First Quarter
Mar 27
Full

Hourly Weather History & Observations

Time (CST) Temp. Windchill Dew Point Humidity Pressure Visibility Wind Dir Wind Speed Gust Speed Precip Events Conditions
12:17 AM 26.6 °F 19.1 °F 21.2 °F 80% 30.05 in 10.0 mi SSE 6.9 mph - N/A   Mostly Cloudy
12:36 AM 26.6 °F 18.2 °F 21.2 °F 80% 30.04 in 10.0 mi SSE 8.1 mph - N/A   Scattered Clouds
12:56 AM 26.6 °F 19.1 °F 21.2 °F 80% 30.03 in 10.0 mi SSE 6.9 mph - N/A   Clear
1:17 AM 26.6 °F 18.2 °F 21.2 °F 80% 30.03 in 10.0 mi SSE 8.1 mph - N/A   Clear
1:36 AM 26.6 °F 19.1 °F 21.2 °F 80% 30.02 in 10.0 mi SE 6.9 mph - N/A   Clear
1:56 AM 24.8 °F 16.9 °F 21.2 °F 86% 30.02 in 10.0 mi SSE 6.9 mph - N/A   Clear
2:17 AM 24.8 °F 15.3 °F 21.2 °F 86% 30.01 in 10.0 mi SE 9.2 mph - N/A   Clear
2:36 AM 24.8 °F 17.9 °F 21.2 °F 86% 30.01 in 10.0 mi SE 5.8 mph - N/A   Clear
2:56 AM 23.0 °F 14.7 °F 21.2 °F 93% 30.00 in 10.0 mi SSE 6.9 mph - N/A   Clear
3:17 AM 23.0 °F 14.7 °F 19.4 °F 86% 29.99 in 10.0 mi SSE 6.9 mph - N/A   Clear
3:36 AM 23.0 °F 15.8 °F 19.4 °F 86% 29.98 in 10.0 mi SSE 5.8 mph - N/A   Clear
3:56 AM 23.0 °F 14.7 °F 19.4 °F 86% 29.98 in 7.0 mi SSE 6.9 mph - N/A   Clear
4:36 AM 23.0 °F 13.9 °F 19.4 °F 86% 29.97 in 7.0 mi SSE 8.1 mph - N/A   Clear
4:56 AM 23.0 °F 17.0 °F 19.4 °F 86% 29.97 in 7.0 mi SSE 4.6 mph - N/A   Clear
5:17 AM 23.0 °F 17.0 °F 19.4 °F 86% 29.97 in 7.0 mi SSE 4.6 mph - N/A   Clear
5:36 AM 23.0 °F 15.8 °F 19.4 °F 86% 29.97 in 7.0 mi SSE 5.8 mph - N/A   Clear
6:16 AM 23.0 °F 17.0 °F 19.4 °F 86% 29.97 in 7.0 mi SE 4.6 mph - N/A   Clear
6:37 AM 21.2 °F 13.6 °F 19.4 °F 93% 29.96 in 7.0 mi SE 5.8 mph - N/A   Clear
6:56 AM 23.0 °F 15.8 °F 19.4 °F 86% 29.96 in 7.0 mi SE 5.8 mph - N/A   Clear
7:17 AM 23.0 °F 14.7 °F 19.4 °F 86% 29.96 in 5.0 mi SE 6.9 mph - N/A   Clear
7:37 AM 23.0 °F 15.8 °F 19.4 °F 86% 29.95 in 5.0 mi SE 5.8 mph - N/A   Clear
7:56 AM 24.8 °F 16.1 °F 21.2 °F 86% 29.95 in 5.0 mi SE 8.1 mph - N/A   Clear
8:17 AM 26.6 °F 16.8 °F 21.2 °F 80% 29.94 in 7.0 mi SE 10.4 mph - N/A   Clear
8:37 AM 26.6 °F 15.7 °F 21.2 °F 80% 29.93 in 7.0 mi SSE 12.7 mph 16.1 mph N/A   Clear
8:56 AM 26.6 °F 16.8 °F 21.2 °F 80% 29.93 in 7.0 mi SE 10.4 mph - N/A   Clear
9:17 AM 28.4 °F 19.1 °F 21.2 °F 74% 29.93 in 7.0 mi SE 10.4 mph - N/A   Clear
9:37 AM 28.4 °F 18.5 °F 23.0 °F 80% 29.93 in 7.0 mi SE 11.5 mph 16.1 mph N/A   Clear
9:56 AM 30.2 °F 21.3 °F 23.0 °F 75% 29.92 in 7.0 mi SE 10.4 mph - N/A   Clear
10:17 AM 30.2 °F 20.8 °F 23.0 °F 75% 29.92 in 7.0 mi SSE 11.5 mph 16.1 mph N/A   Clear
10:37 AM 32.0 °F 23.0 °F 23.0 °F 69% 29.91 in 10.0 mi SSE 11.5 mph - N/A   Clear
10:56 AM 32.0 °F 22.5 °F 24.8 °F 75% 29.91 in 10.0 mi SE 12.7 mph - N/A   Clear
11:37 AM 33.8 °F 24.3 °F 26.6 °F 75% 29.90 in 7.0 mi SSE 13.8 mph 18.4 mph N/A   Clear
11:56 AM 33.8 °F 24.8 °F 26.6 °F 75% 29.88 in 10.0 mi SSE 12.7 mph 20.7 mph N/A   Clear
12:17 PM 33.8 °F 24.8 °F 26.6 °F 75% 29.88 in 10.0 mi SSE 12.7 mph 23.0 mph N/A   Clear
12:36 PM 35.6 °F 26.2 °F 26.6 °F 70% 29.87 in 10.0 mi SSE 15.0 mph 20.7 mph N/A   Clear
12:57 PM 35.6 °F 25.5 °F 26.6 °F 70% 29.86 in 10.0 mi SSE 17.3 mph - N/A   Clear
1:17 PM 35.6 °F 25.9 °F 26.6 °F 70% 29.86 in 10.0 mi SSE 16.1 mph - N/A   Scattered Clouds
1:36 PM 35.6 °F 26.2 °F 26.6 °F 70% 29.85 in 10.0 mi SSE 15.0 mph 20.7 mph N/A   Scattered Clouds
1:57 PM 35.6 °F 26.6 °F 26.6 °F 70% 29.84 in 10.0 mi SSE 13.8 mph 20.7 mph N/A   Mostly Cloudy
2:16 PM 35.6 °F 26.6 °F 26.6 °F 70% 29.83 in 10.0 mi SE 13.8 mph - N/A   Overcast
2:37 PM 35.6 °F 25.9 °F 26.6 °F 70% 29.82 in 10.0 mi SE 16.1 mph - N/A   Overcast
2:56 PM 33.8 °F 23.9 °F 26.6 °F 75% 29.82 in 10.0 mi SE 15.0 mph - N/A   Overcast
3:17 PM 33.8 °F 24.3 °F 26.6 °F 75% 29.82 in 10.0 mi SE 13.8 mph 18.4 mph N/A   Overcast
3:57 PM 33.8 °F 23.5 °F 26.6 °F 75% 29.80 in 10.0 mi SE 16.1 mph 23.0 mph N/A   Mostly Cloudy
4:16 PM 33.8 °F 23.9 °F 26.6 °F 75% 29.80 in 10.0 mi SE 15.0 mph 25.3 mph N/A   Mostly Cloudy
4:37 PM 33.8 °F 22.2 °F 26.6 °F 75% 29.79 in 10.0 mi SE 20.7 mph 25.3 mph N/A   Overcast
4:57 PM 32.0 °F 20.8 °F 26.6 °F 80% 29.80 in 7.0 mi SE 17.3 mph 25.3 mph N/A   Light Drizzle
5:16 PM 32.0 °F 21.2 °F 26.6 °F 80% 29.79 in 7.0 mi SE 16.1 mph 24.2 mph N/A   Light Drizzle
5:37 PM 32.0 °F 20.8 °F 26.6 °F 80% 29.79 in 7.0 mi SE 17.3 mph 21.9 mph N/A   Light Drizzle
5:57 PM 32.0 °F 22.5 °F 26.6 °F 80% 29.79 in 7.0 mi SE 12.7 mph 23.0 mph N/A   Light Drizzle
6:16 PM 32.0 °F 21.2 °F 28.4 °F 87% 29.79 in 7.0 mi SE 16.1 mph 20.7 mph N/A   Light Drizzle
6:37 PM 32.0 °F 20.8 °F 26.6 °F 80% 29.79 in 7.0 mi SE 17.3 mph 23.0 mph N/A   Overcast
6:57 PM 32.0 °F 21.2 °F 26.6 °F 80% 29.79 in 7.0 mi SE 16.1 mph 24.2 mph N/A   Overcast
7:16 PM 32.0 °F 21.6 °F 26.6 °F 80% 29.79 in 7.0 mi SE 15.0 mph 23.0 mph N/A   Overcast
7:37 PM 32.0 °F 20.8 °F 26.6 °F 80% 29.79 in 10.0 mi SE 17.3 mph - N/A   Overcast
7:57 PM 32.0 °F 22.1 °F 26.6 °F 80% 29.79 in 10.0 mi SE 13.8 mph 21.9 mph N/A   Overcast
8:16 PM 32.0 °F 23.0 °F 26.6 °F 80% 29.81 in 10.0 mi SSE 11.5 mph 20.7 mph N/A   Overcast
8:37 PM 32.0 °F 22.1 °F 26.6 °F 80% 29.81 in 7.0 mi SSE 13.8 mph 21.9 mph N/A   Overcast
8:57 PM 32.0 °F 20.8 °F 26.6 °F 80% 29.81 in 7.0 mi SE 17.3 mph 23.0 mph N/A   Overcast
9:16 PM 32.0 °F 20.8 °F 26.6 °F 80% 29.80 in 7.0 mi SE 17.3 mph 23.0 mph N/A   Overcast
9:37 PM 30.2 °F 19.8 °F 26.6 °F 86% 29.80 in 7.0 mi SE 13.8 mph 23.0 mph N/A   Overcast
9:57 PM 32.0 °F 21.6 °F 26.6 °F 80% 29.80 in 5.0 mi SE 15.0 mph 21.9 mph N/A   Overcast
10:16 PM 32.0 °F 21.2 °F 26.6 °F 80% 29.80 in 5.0 mi SE 16.1 mph - N/A   Overcast
10:37 PM 30.2 °F 18.5 °F 26.6 °F 86% 29.79 in 7.0 mi SE 17.3 mph - N/A   Overcast
10:57 PM 30.2 °F 18.5 °F 26.6 °F 86% 29.77 in 7.0 mi SE 17.3 mph 20.7 mph N/A   Overcast
11:16 PM 30.2 °F 19.3 °F 26.6 °F 86% 29.75 in 5.0 mi SE 15.0 mph 21.9 mph N/A   Overcast
11:37 PM 30.2 °F 19.3 °F 26.6 °F 86% 29.75 in 7.0 mi SE 15.0 mph 18.4 mph N/A   Overcast
11:57 PM 30.2 °F 20.8 °F 26.6 °F 86% 29.76 in 10.0 mi SE 11.5 mph - N/A   Overcast